This is the latest recevied weather packets stored in our database for station/object K5GTX. If no packets are shown the sender has not sent any weather packets the latest 10 day(s).
| Time | Temp. | Humidity | Pressure | Rain* | Wind** | Luminosity | Snow |
|---|---|---|---|---|---|---|---|
| 1777669580 | 18.33° C | 99% | 1022.1 hPa | 0 mm | - | 237 W/m² | - |
| 1777669277 | 18.89° C | 99% | 1022.2 hPa | 0 mm | - | 261 W/m² | - |
| 1777668973 | 18.89° C | 99% | 1022.5 hPa | 0 mm | - | 514 W/m² | - |
| 1777668671 | 18.33° C | 99% | 1022.2 hPa | 0 mm | - | 287 W/m² | - |
| 1777668368 | 18.33° C | 99% | 1022.3 hPa | 0 mm | - | 407 W/m² | - |
| 1777668063 | 17.78° C | 99% | 1022.5 hPa | 0 mm | - | 137 W/m² | - |
| 1777667760 | 17.78° C | 99% | 1022.6 hPa | 0 mm | - | 258 W/m² | - |
| 1777667458 | 17.78° C | 99% | 1023 hPa | 0 mm | - | 168 W/m² | - |
| 1777667155 | 17.78° C | 99% | 1023 hPa | 0 mm | - | 159 W/m² | - |
| 1777666851 | 17.78° C | 99% | 1023 hPa | 0 mm | - | 143 W/m² | - |
| 1777666549 | 17.78° C | 99% | 1022.8 hPa | 0 mm | - | 193 W/m² | - |
| 1777666245 | 17.78° C | 99% | 1023.1 hPa | 0 mm | - | 157 W/m² | - |
| 1777665942 | 17.78° C | 99% | 1022.9 hPa | 0 mm | - | 187 W/m² | - |
| 1777665639 | 17.78° C | 99% | 1022.6 hPa | 0 mm | - | 264 W/m² | - |
| 1777665337 | 18.33° C | 99% | 1022.4 hPa | 0 mm | - | 278 W/m² | - |
| 1777665032 | 17.78° C | 99% | 1022.1 hPa | 0 mm | - | 214 W/m² | - |
| 1777664728 | 17.78° C | 99% | 1022.2 hPa | 0 mm | - | 163 W/m² | - |
| 1777664424 | 17.78° C | 99% | 1022.4 hPa | 0 mm | - | 127 W/m² | - |
| 1777664122 | 17.78° C | 99% | 1022.5 hPa | 0 mm | - | 184 W/m² | - |
| 1777663820 | 17.78° C | 99% | 1022.3 hPa | 0 mm | - | 218 W/m² | - |
| 1777663516 | 17.78° C | 99% | 1022.4 hPa | 0 mm | - | 206 W/m² | - |
| 1777663215 | 17.78° C | 99% | 1022 hPa | 0 mm | - | 214 W/m² | - |
| 1777662911 | 17.78° C | 99% | 1022.1 hPa | 0 mm | - | 218 W/m² | - |
| 1777662609 | 17.78° C | 99% | 1022.4 hPa | 0 mm | - | 217 W/m² | - |
| 1777662303 | 17.78° C | 99% | 1022.5 hPa | 0 mm | - | 209 W/m² | - |
* Rain latest hour (hover to see other rain measurements)
** Current wind speed in m/s (hover to see current wind gust speed)